This is the latest recevied weather packets stored in our database for station/object KO4DYK. If no packets are shown the sender has not sent any weather packets the latest 10 day(s).
| Time | Temp. | Humidity | Pressure | Rain* | Wind** | Luminosity | Snow |
|---|---|---|---|---|---|---|---|
| 1777856774 | 16.11° C | 60% | 1020 hPa | 0 mm | - | 0 W/m² | - |
| 1777856470 | 16.67° C | 58% | 1020 hPa | 0 mm | - | 0 W/m² | - |
| 1777856167 | 16.67° C | 56% | 1019.9 hPa | 0 mm | - | 0 W/m² | - |
| 1777855864 | 17.22° C | 54% | 1020.1 hPa | 0 mm | - | 0 W/m² | - |
| 1777855562 | 17.78° C | 52% | 1020.1 hPa | 0 mm | - | 1 W/m² | - |
| 1777855259 | 18.33° C | 51% | 1020 hPa | 0 mm | - | 2 W/m² | - |
| 1777854955 | 18.33° C | 51% | 1020 hPa | 0 mm | - | 5 W/m² | - |
| 1777854652 | 18.89° C | 50% | 1019.9 hPa | 0 mm | - | 7 W/m² | - |
| 1777854349 | 19.44° C | 48% | 1019.8 hPa | 0 mm | - | 10 W/m² | - |
| 1777854047 | 19.44° C | 48% | 1019.8 hPa | 0 mm | - | 13 W/m² | - |
| 1777853744 | 19.44° C | 47% | 1019.8 hPa | 0 mm | - | 16 W/m² | - |
| 1777853440 | 20° C | 46% | 1019.9 hPa | 0 mm | - | 19 W/m² | - |
| 1777853137 | 20° C | 46% | 1020 hPa | 0 mm | - | 21 W/m² | - |
| 1777852835 | 20.56° C | 45% | 1020.1 hPa | 0 mm | - | 23 W/m² | - |
| 1777852533 | 20.56° C | 43% | 1020.1 hPa | 0 mm | - | 25 W/m² | - |
| 1777852229 | 20.56° C | 43% | 1020.1 hPa | 0 mm | - | 27 W/m² | - |
| 1777851927 | 21.11° C | 42% | 1020.1 hPa | 0 mm | - | 29 W/m² | - |
| 1777851625 | 21.11° C | 41% | 1020.2 hPa | 0 mm | - | 48 W/m² | - |
| 1777851321 | 21.11° C | 42% | 1020.3 hPa | 0 mm | - | 32 W/m² | - |
| 1777851017 | 21.11° C | 42% | 1020.2 hPa | 0 mm | - | 34 W/m² | - |
| 1777850714 | 21.11° C | 41% | 1020.3 hPa | 0 mm | - | 35 W/m² | - |
| 1777850412 | 21.11° C | 42% | 1020.3 hPa | 0 mm | - | 37 W/m² | - |
| 1777850110 | 21.11° C | 41% | 1020.5 hPa | 0 mm | - | 38 W/m² | - |
| 1777849806 | 21.11° C | 42% | 1020.5 hPa | 0 mm | - | 40 W/m² | - |
| 1777849503 | 21.67° C | 42% | 1020.2 hPa | 0 mm | - | 40 W/m² | - |
* Rain latest hour (hover to see other rain measurements)
** Current wind speed in m/s (hover to see current wind gust speed)